Regional Weather Roundup
Issued by NWS Cleveland, OH

Home | Current Version | Previous Version | Graphics & Text | Print | Product List | Glossary On
Versions: 1 2 3 4 5 6 7 8 9 10 11 12 13 14 15 16 17 18 19 20 21 22 23 24 25 26 27 28 29 30 31 32 33 34 35 36 37 38 39 40 41 42 43 44 45 46 47 48 49 50
000
ASUS41 KCLE 181010
RWRCLE
OHIO REGIONAL WEATHER ROUNDUP
NATIONAL WEATHER SERVICE WILMINGTON, OH
500 AM EST SUN FEB 18 2018

NOTE: "FAIR" INDICATES FEW OR NO CLOUDS BELOW 12,000 FEET WITH NO
SIGNIFICANT WEATHER AND/OR OBSTRUCTIONS TO VISIBILITY.

OHZ001>008-015>018-024>027-034-035-043-044-181100-
   NORTHWEST OHIO

CITY           SKY/WX    TMP DP  RH WIND       PRES   REMARKS
DEFIANCE       CLOUDY    31  26  82 VRB6      30.26R WCI  25
FINDLAY        CLOUDY    33  27  78 W13       30.24R WCI  24
TOLEDO EXPRESS CLOUDY    32  28  85 W14       30.24R WCI  22
TOLEDO EXEC    CLOUDY    32  29  88 W8        30.25R WCI  25
LIMA           CLOUDY    30  27  88 W14       30.26R WCI  19
$$

OHZ009>014-019>023-028>033-038-089-181100-
   NORTHEAST OHIO

CITY           SKY/WX    TMP DP  RH WIND       PRES   REMARKS
CLE-HOPKINS    CLOUDY    33  30  88 W8        30.24R WCI  26
CLE-LAKEFRONT  CLOUDY    32  29  88 W9        30.22R WCI  24
CUY CO. ARPT   NOT AVBL
LORAIN-ELYRIA  CLOUDY    32  27  81 NW12      30.23R WCI  23
ASHTABULA      FAIR      27  26  96 W5        30.20R WCI  22
AKRON-CANTON   CLOUDY    34  28  79 W9        30.19R WCI  27
WOOSTER        CLOUDY    32  28  85 W10       30.22R WCI  24
MANSFIELD      CLOUDY    32  29  88 W6        30.22R WCI  26
YOUNGSTOWN     MOCLDY    31  28  89 W6        30.19R WCI  25
$$

OHZ042-051>053-060>062-070>072-077>081-181100-
  SOUTHWEST OHIO

CITY           SKY/WX    TMP DP  RH WIND       PRES   REMARKS
CINC-COVINGTON CLOUDY    33  30  88 NW3       30.28R
CINC-LUNKEN    CLOUDY    34  28  79 W5        30.31R WCI  30
HAMILTON       CLOUDY    33  30  88 CALM      30.30R
DAYTON         CLOUDY    31  27  85 NW9       30.28R WCI  23
WRIGHT-PAT AFB CLOUDY    32  28  84 NW13      30.28R WCI  23
DAYTON GENERAL CLOUDY    32  25  75 NW7       30.26R WCI  26
WILMINGTON     CLOUDY    32  28  85 N7        30.28R WCI  26
$$

OHZ036-037-039>041-045>050-054>059-063>069-073>076-082>088-181100-
  CENTRAL AND SOUTHEAST OHIO

CITY           SKY/WX    TMP DP  RH WIND       PRES   REMARKS
COLUMBUS       CLOUDY    34  28  79 W10       30.27R WCI  26
OSU AIRPORT    CLOUDY    33  28  81 W9        30.27R WCI  25
BOLTON FIELD   CLOUDY    32  26  77 NW12      30.28R WCI  23
RICKENBACK AFB CLOUDY    33  28  83 NW8G16    30.28R WCI  26
NEWARK         CLOUDY    34  27  75 W9        30.26R WCI  27
MARION         CLOUDY    32  26  78 W8        30.25R WCI  25
LANCASTER      CLOUDY    34  28  79 W6        30.28R WCI  29
ZANESVILLE     CLOUDY    35  29  78 W8        30.25R WCI  29
NEW PHILLY     CLOUDY    35  27  72 W6        30.22R
$$



USA.gov is the U.S. government's official web portal to all federal, state and local government web resources and services.